Location: Bacharowice
(49.9333°N, 19.5833°E)
Time: 13:13:18
(UTC+00:00)

Resurs 01 Rocket - Pass Details

Date: 11 May 2021
Orbit: 633 x 644 km, 97.9° (Epoch: 22 June)

Event Time Altitude Azimuth Distance (km) Brightness Sun altitude
Exits shadow 20:02:13 - 198° (SSW) 2,530 4.4 -13.8°
Reaches altitude 10° 20:03:36 10° 206° (SSW) 2,037 4.0 -13.9°
Maximum altitude 20:07:25 28° 266° (W) 1,214 3.4 -14.3°
Drops below altitude 10° 20:11:16 10° 325° (NW) 2,048 5.7 -14.6°
Sets 20:13:46 0° 337° (NNW) 2,961 6.7 -14.9°
